Theta_e
339 337 336 334 333 329 323 320 303 313 308 299 300 304 301 308 308 304 306 308 306 315 317 319 316 318 315 313 314 317 320 315 318 310 309 327 336 339 340 338 342 344 345 345 346 347 347 349 349 348 347 346 345 344 345 345 345 345 345 345 344 343 341 340 339 340 339 337 337 337 337 336 336 337 335 335 336 338 338 335 338 337 336 336 338 340 339 338 339 338 337 337 337 336 336 335 334
336 336 336 335 331 328 316 319 310 305 305 299 301 305 304 306 307 304 303 308 312 314 315 317 317 317 320 319 315 318 321 324 322 324 327 333 337 337 340 340 344 344 345 345 346 346 346 347 348 348 347 346 345 344 343 344 344 344 344 344 343 342 341 340 339 339 337 337 334 336 335 337 336 337 337 336 337 338 337 335 335 335 334 335 338 337 338 338 337 336 335 335 334 335 335 335 335
335 335 335 334 327 323 318 318 302 302 300 297 301 304 308 305 305 308 310 315 315 316 317 318 319 318 317 318 314 316 312 328 326 327 326 334 331 332 336 340 342 344 345 346 345 345 346 346 347 348 347 346 346 344 343 343 343 343 343 342 342 341 341 340 339 338 337 336 335 337 335 335 336 336 338 337 336 337 336 335 335 335 334 333 334 338 338 337 336 335 335 335 335 334 334 335 334
337 338 333 330 319 326 315 311 305 301 298 299 300 307 307 307 309 312 313 315 315 316 317 315 314 321 317 312 316 319 321 322 329 329 327 330 331 335 336 340 343 343 346 346 345 345 345 346 346 348 348 346 346 344 343 342 342 343 344 343 341 341 340 339 338 338 337 337 338 338 335 335 335 335 335 336 337 336 335 333 335 336 333 330 332 338 335 334 333 334 334 335 334 334 334 334 334
335 333 333 326 322 313 315 308 304 303 298 301 299 306 307 310 312 313 313 314 314 316 317 317 317 322 321 317 320 315 317 326 330 332 330 333 337 336 337 341 342 342 344 346 345 346 345 345 346 347 348 346 345 344 343 342 341 344 344 345 344 342 341 339 339 338 337 337 338 339 337 335 334 334 336 336 336 334 334 335 335 334 333 333 333 333 333 334 333 333 335 334 335 334 334 333 333
333 331 332 330 316 322 315 305 304 302 305 308 302 303 307 312 314 315 314 315 316 315 317 315 316 316 315 317 325 320 327 319 327 330 333 333 336 337 338 339 339 341 344 345 345 346 346 344 345 346 348 346 345 344 343 342 342 344 345 345 344 343 341 337 337 337 337 338 339 340 339 337 335 334 335 336 335 333 333 334 334 333 333 333 332 333 334 332 333 334 332 334 334 334 333 333 333
329 327 329 327 322 322 306 303 302 303 305 308 304 305 307 312 314 314 314 315 317 319 316 316 320 317 313 320 324 327 330 331 331 332 336 335 337 337 339 338 339 340 343 344 345 346 345 343 346 347 347 347 345 344 343 342 342 344 345 345 344 341 339 337 336 338 336 338 341 342 342 339 336 334 335 336 334 333 334 335 334 332 332 331 332 333 332 332 332 332 332 333 333 333 332 332 332
336 326 322 317 312 310 303 302 303 306 305 307 308 307 309 313 315 313 313 312 312 312 315 315 316 313 316 323 317 325 333 334 334 337 337 336 336 336 338 338 339 339 341 343 345 346 346 343 345 346 347 347 346 345 343 342 342 342 345 344 343 340 338 337 336 337 337 337 344 344 343 340 338 335 335 335 334 333 332 334 334 332 330 333 334 333 333 331 332 332 332 333 331 332 332 332 332
329 323 328 316 307 312 305 304 304 310 307 308 307 309 313 312 315 314 310 314 314 315 313 314 313 310 316 317 320 325 328 336 337 337 337 336 336 336 337 337 336 339 342 342 345 345 344 342 344 346 346 346 346 344 343 342 342 341 342 344 343 340 338 337 337 336 337 336 344 344 342 339 339 338 335 334 333 336 335 334 333 330 333 334 333 331 332 330 330 331 332 331 331 331 330 330 331
323 323 313 313 314 303 304 304 303 306 309 308 308 308 309 310 312 313 313 312 313 315 314 316 315 312 316 316 319 324 327 335 336 335 336 336 336 336 336 336 339 340 341 343 345 344 344 346 342 344 344 345 345 344 344 343 343 342 341 341 342 339 338 337 337 337 336 337 337 340 338 339 340 339 337 335 334 336 335 334 332 332 331 334 333 331 330 332 331 331 331 330 330 330 330 330 330
315 323 324 310 305 303 302 303 304 309 308 308 308 311 311 311 312 311 314 314 316 313 316 316 313 311 313 322 323 329 332 335 334 332 336 336 337 336 335 335 339 340 341 343 345 345 344 344 345 341 343 343 343 344 344 344 342 342 342 341 340 338 338 337 337 336 335 338 337 337 338 339 341 341 338 338 339 338 336 335 332 333 332 331 332 331 330 332 329 330 331 331 330 329 330 330 330
313 313 319 306 304 303 304 303 306 308 310 308 306 310 311 311 314 310 313 312 310 313 315 315 313 316 310 316 322 327 331 333 334 335 336 337 336 336 335 335 339 339 343 344 345 345 344 344 344 344 339 340 341 342 342 343 343 341 343 341 340 339 338 338 337 335 336 337 339 338 337 338 339 340 340 342 342 341 336 336 335 333 333 331 333 329 332 333 331 331 331 331 330 330 330 330 330
315 317 311 308 306 306 307 306 306 309 310 308 307 311 312 311 310 311 312 313 311 311 312 314 319 315 310 313 324 328 328 333 336 336 337 337 337 336 336 333 335 340 343 343 344 344 344 344 344 344 341 337 337 338 340 341 342 342 343 342 342 341 339 339 339 339 338 336 340 341 340 341 341 340 341 341 342 340 338 340 339 336 335 334 334 332 332 334 331 330 330 330 331 331 331 330 330
315 319 313 306 312 308 307 307 308 306 305 309 312 313 314 312 312 314 312 309 312 310 318 317 316 316 313 321 322 322 326 334 336 337 337 337 337 335 336 335 335 339 341 342 342 344 343 344 344 344 342 341 341 338 336 338 340 342 341 341 342 342 341 341 341 341 341 341 341 341 341 342 342 340 342 342 343 341 338 338 340 338 336 335 335 335 334 333 333 332 332 331 330 331 332 331 331
323 320 313 310 307 307 308 305 308 308 308 310 311 312 313 316 316 313 314 310 313 319 321 319 323 315 307 310 318 322 328 334 336 337 337 336 336 335 335 336 337 335 337 338 339 344 344 343 343 343 343 343 342 340 340 338 336 338 339 340 340 341 341 340 339 339 339 339 339 338 338 338 337 339 340 340 338 337 335 335 336 337 337 336 335 335 335 334 333 333 333 333 332 331 332 332 332
321 317 315 307 304 304 307 307 310 307 310 308 310 314 311 314 316 311 313 314 314 319 318 313 321 314 322 324 325 328 333 334 336 336 335 334 334 335 334 332 331 333 334 334 335 337 343 343 343 343 343 343 343 342 342 341 335 334 336 337 338 338 339 339 337 336 335 335 334 334 333 331 331 333 334 334 333 335 334 330 332 333 337 336 336 336 336 336 334 334 333 333 333 332 333 333 334
324 321 308 306 303 305 307 307 309 306 309 310 310 312 309 310 314 314 315 317 313 314 313 318 316 320 323 328 331 333 334 334 334 334 333 331 330 329 331 330 330 331 334 333 333 334 335 342 342 342 343 343 342 342 342 342 339 333 333 333 334 334 335 336 334 330 328 328 329 327 329 331 330 331 331 333 329 331 328 327 330 333 336 336 336 336 335 334 334 334 334 334 333 333 334 334 333
319 309 307 304 306 305 310 309 312 315 310 309 309 310 309 308 311 312 315 313 312 313 311 316 319 318 325 330 334 334 334 333 334 332 330 329 329 328 327 329 329 328 330 330 332 333 333 333 339 342 342 342 342 343 343 343 341 335 338 337 336 332 331 331 329 332 336 334 326 331 330 330 329 328 331 334 330 330 327 325 327 331 334 334 336 335 334 333 334 333 333 334 333 334 330 328 327
312 309 308 303 307 310 314 314 314 312 312 312 311 311 310 310 312 311 308 307 308 309 311 313 314 319 325 329 332 332 332 332 332 331 330 328 327 327 327 328 329 329 329 330 331 332 333 333 334 334 340 342 342 342 343 343 342 338 338 338 337 332 334 334 334 334 334 335 335 335 333 332 329 328 327 331 331 327 329 324 325 328 330 331 333 335 336 335 334 333 334 336 335 331 325 325 325
315 310 305 306 311 314 315 316 320 316 318 314 312 311 310 311 311 312 308 307 308 307 307 309 312 312 321 327 330 330 330 331 331 330 329 329 328 328 328 327 328 328 330 330 330 333 332 332 333 334 334 336 338 338 340 339 341 339 339 339 337 336 335 334 334 334 333 333 334 335 333 333 330 328 332 335 337 330 327 323 323 325 326 326 327 330 331 333 334 335 335 335 331 326 326 326 325
314 310 306 309 312 310 313 316 317 318 317 314 313 311 310 312 311 310 310 306 307 309 311 311 311 313 321 324 329 329 329 329 329 329 328 329 329 329 329 329 328 329 330 332 331 332 331 332 332 333 334 335 335 336 337 335 340 340 339 339 339 337 336 335 334 333 333 332 333 333 335 333 331 329 328 330 331 331 329 326 325 325 325 324 321 324 326 327 328 327 329 328 326 326 326 325 325
316 310 312 312 313 310 314 315 315 314 314 313 313 310 311 313 312 310 309 305 305 309 313 313 314 314 319 322 327 328 329 328 328 328 327 328 328 328 330 330 332 332 331 330 331 331 332 332 332 333 333 334 335 334 335 335 335 336 337 336 335 337 337 336 334 333 332 333 333 333 332 331 330 329 328 328 329 329 327 328 328 327 327 327 325 325 326 326 326 326 327 326 326 326 325 325 324
308 311 312 314 314 311 314 314 313 313 314 312 311 312 313 310 310 311 309 308 311 311 311 312 313 316 320 325 326 326 328 327 328 327 328 328 329 329 330 330 331 330 331 331 332 332 332 333 332 333 332 333 334 335 335 334 334 333 333 333 334 333 335 335 333 332 331 332 333 332 331 330 329 328 328 328 327 327 325 324 326 328 328 328 328 327 326 326 325 326 326 327 327 326 326 325 323
312 308 312 312 315 313 315 313 313 313 312 312 313 311 309 311 306 312 309 311 313 312 312 312 313 316 325 324 325 324 326 328 328 329 330 329 330 330 330 330 331 332 331 331 333 333 332 332 333 332 332 333 333 335 334 333 333 333 333 332 333 331 331 331 331 332 332 331 331 331 329 329 327 327 326 326 326 326 324 325 325 324 326 327 327 328 327 326 325 324 325 325 326 326 326 325 322
309 308 312 312 313 314 314 313 313 313 313 313 313 310 309 310 310 311 309 311 313 314 312 311 312 315 316 323 324 324 325 327 328 329 330 330 331 332 332 331 331 332 331 331 332 333 333 333 333 332 332 332 334 335 333 333 333 333 332 332 332 331 332 332 333 333 333 331 331 330 329 328 327 327 325 325 325 325 324 325 324 324 325 325 325 323 324 324 324 323 322 322 323 322 321 322 321
310 310 312 312 311 312 314 314 314 313 314 314 311 310 311 312 314 310 312 312 313 314 311 311 312 312 312 317 321 320 321 324 327 327 328 329 330 330 331 330 330 331 333 333 333 332 333 334 333 332 332 333 333 333 333 332 332 332 333 332 333 331 332 332 333 332 333 332 329 331 330 329 328 327 326 325 325 325 324 325 325 324 324 324 324 324 323 321 320 320 321 321 321 321 321 321 320
312 311 311 311 311 311 312 312 313 313 312 313 310 310 311 314 312 306 313 315 316 315 313 311 310 310 311 312 317 317 318 320 324 327 327 328 329 329 330 331 330 330 332 333 333 333 333 333 333 333 333 331 332 332 332 332 332 332 332 333 332 331 331 332 331 331 331 331 331 330 330 329 329 328 326 325 325 325 325 325 324 325 324 324 324 324 324 322 321 320 321 321 321 321 320 320 319
311 311 310 309 311 311 311 312 312 311 310 312 312 309 311 312 311 309 313 316 316 315 314 311 310 309 310 311 312 315 316 319 323 325 325 327 327 328 329 330 331 331 331 332 333 334 333 334 334 334 334 333 332 332 331 332 332 332 332 332 332 332 332 332 332 331 329 330 331 330 330 329 328 328 327 327 325 325 324 324 325 324 324 323 324 323 323 322 322 321 320 321 320 320 320 319 320
310 311 305 307 308 308 310 309 310 311 308 312 312 308 306 308 307 312 314 315 316 315 314 312 311 311 311 311 311 312 313 315 319 323 325 327 329 330 329 331 332 331 332 332 333 333 333 333 334 335 334 333 332 331 331 332 332 333 332 332 332 333 332 332 331 331 331 331 331 331 331 330 329 328 328 328 326 324 324 324 324 324 324 324 324 324 323 322 322 321 321 320 320 320 318 318 318
310 309 306 304 304 303 308 311 310 309 310 311 310 295 300 305 309 312 315 314 314 314 313 312 313 312 312 312 311 312 314 316 316 321 324 326 329 330 329 331 333 333 331 331 332 333 334 335 335 335 334 333 332 332 332 331 332 332 332 332 331 332 332 332 331 332 331 331 331 331 331 331 329 330 329 328 328 325 325 325 324 324 324 324 324 324 323 322 321 320 320 320 319 319 318 317 316
303 306 306 300 298 298 306 307 308 306 310 310 310 297 300 305 308 312 314 315 313 312 313 313 314 313 312 312 311 313 316 317 317 320 324 326 327 329 330 330 332 333 331 332 332 333 334 334 335 335 333 333 331 332 331 332 332 332 332 332 332 332 332 332 332 331 331 330 330 331 331 331 330 330 329 329 328 327 325 324 323 323 324 324 323 323 322 323 322 321 321 320 319 318 318 318 317
305 299 296 300 297 298 303 307 307 303 308 311 307 298 300 304 306 309 312 314 314 312 312 313 314 314 314 312 312 313 315 318 319 320 324 325 325 325 328 329 330 331 332 332 332 333 333 334 334 333 333 333 333 332 332 332 333 333 333 332 333 333 331 331 331 331 330 330 329 329 330 330 330 330 330 330 328 327 326 325 325 325 324 324 323 322 323 322 322 323 322 322 320 318 317 317 317
302 299 295 295 297 297 299 304 306 308 308 309 306 298 302 303 307 309 311 310 313 312 312 312 313 314 314 314 313 313 314 315 319 320 321 325 325 323 325 328 328 330 332 332 333 332 332 333 332 333 333 333 334 333 333 332 333 333 333 333 334 333 333 331 331 330 330 330 330 329 329 330 329 330 330 330 329 328 327 327 325 326 325 324 323 323 323 323 323 323 323 324 323 319 317 317 316
296 299 295 298 296 297 295 302 305 306 306 303 307 303 303 304 306 307 309 310 309 309 310 311 312 312 313 312 313 313 314 314 315 318 321 323 324 324 324 326 328 329 331 332 333 333 333 333 333 332 333 334 334 334 333 333 333 333 333 333 332 333 333 333 332 331 331 331 331 331 330 330 329 330 330 330 329 328 328 328 327 326 326 325 324 324 324 325 325 324 323 324 324 322 319 317 317
294 295 294 295 298 298 297 297 303 304 304 302 303 303 303 305 307 307 308 308 308 308 310 310 310 310 311 311 312 313 313 313 315 317 319 322 324 325 325 325 327 327 329 331 332 333 333 333 332 332 332 333 333 334 333 333 333 333 332 332 332 332 333 333 333 332 332 331 332 332 331 330 328 330 330 329 329 328 328 328 328 327 327 326 325 324 324 325 325 325 324 324 324 324 321 319 319
298 298 297 297 295 296 296 300 304 304 300 302 302 300 302 304 306 307 308 308 307 307 309 309 310 309 309 309 310 311 312 313 315 318 319 320 323 325 326 326 327 328 328 329 329 331 332 332 332 332 332 334 334 333 333 333 332 331 329 330 329 330 331 331 333 333 332 332 332 332 332 331 329 329 330 329 329 328 328 328 327 328 327 327 325 324 324 325 324 324 324 324 323 322 322 322 321
302 300 299 298 297 298 301 302 303 306 302 301 302 302 302 303 303 305 307 308 307 306 306 308 309 309 308 307 308 309 310 312 316 318 320 321 323 321 325 325 327 328 327 327 328 329 331 331 330 331 332 333 332 332 332 332 331 330 329 329 328 329 329 331 331 333 333 332 332 332 332 332 331 329 329 329 328 326 328 328 327 327 327 326 325 325 325 325 325 325 325 324 323 321 321 322 322
299 298 298 297 298 295 301 301 303 304 300 297 300 300 300 301 303 304 305 304 304 306 306 306 307 308 309 308 308 308 310 314 317 318 318 320 320 322 323 324 323 326 326 326 326 328 330 330 330 331 332 332 332 332 332 332 333 332 330 329 329 329 328 328 329 330 332 332 332 332 332 332 331 330 328 329 328 328 327 327 327 326 326 326 326 325 325 322 323 325 325 323 323 321 320 322 322
299 297 297 296 297 300 302 302 304 304 301 296 299 298 299 301 302 304 304 304 305 305 305 306 307 306 308 309 308 308 309 310 311 313 315 315 319 321 320 320 321 323 325 326 326 327 328 329 330 330 331 331 331 331 331 331 333 333 332 330 330 329 330 330 330 330 330 331 331 331 332 332 331 331 329 328 328 328 327 327 326 326 326 326 325 325 324 323 323 323 324 323 321 322 321 321 321
298 297 295 293 297 296 293 300 302 303 301 298 299 297 299 302 304 304 305 305 305 306 307 307 307 306 307 308 309 309 308 310 310 311 312 314 316 318 318 319 320 319 318 320 323 325 327 328 329 330 330 331 331 331 329 332 332 333 333 332 331 330 328 329 329 329 329 329 329 331 332 332 332 331 331 329 328 328 327 326 326 326 326 326 325 324 324 323 323 323 323 323 322 319 319 320 322
298 298 297 296 296 297 297 297 300 302 302 302 299 296 296 298 298 300 303 305 305 306 307 307 308 308 309 309 310 310 309 308 309 310 311 312 314 316 316 318 320 319 319 318 319 322 325 326 328 329 330 330 331 330 329 330 330 330 332 331 329 329 329 328 328 327 328 328 328 329 330 332 332 331 331 331 328 328 327 327 326 326 326 327 326 325 324 324 324 324 323 322 322 320 318 319 320
295 298 298 298 299 297 298 299 297 295 294 299 297 289 289 296 297 299 301 302 302 305 305 305 306 307 307 307 308 310 311 310 309 309 309 311 312 314 314 315 317 319 320 320 320 320 320 322 325 327 329 329 330 330 330 329 329 329 329 328 326 326 325 326 325 326 327 327 327 329 330 331 332 331 331 331 330 327 327 327 327 326 326 326 326 326 325 324 323 323 324 323 322 322 319 317 318
293 295 301 300 299 298 298 297 296 289 287 295 299 289 285 294 294 297 299 300 301 303 303 304 306 307 307 307 308 309 310 311 311 311 310 310 310 311 312 313 314 316 319 321 321 320 319 320 321 324 327 328 329 329 330 328 328 328 329 328 328 326 325 326 328 329 329 329 329 329 329 330 331 331 331 331 331 329 328 327 327 327 327 327 326 326 325 324 324 324 324 323 323 322 321 318 317
291 300 300 301 299 298 297 297 295 293 298 299 299 295 287 287 293 297 298 297 299 300 302 303 304 305 306 307 308 308 310 311 311 311 311 311 311 311 311 312 313 314 316 318 319 320 320 319 319 320 323 325 328 329 329 329 327 327 327 327 327 326 325 325 327 328 329 329 329 329 329 329 330 331 330 330 330 330 328 328 327 327 327 327 326 326 326 325 325 324 323 324 323 323 322 320 318
295 301 301 298 299 298 298 296 294 294 292 287 293 296 288 287 293 299 299 295 296 297 299 301 303 304 305 306 307 308 309 311 311 311 310 311 311 312 312 312 313 313 313 314 317 318 319 320 319 319 319 322 324 326 327 329 327 327 327 327 326 326 327 326 326 326 327 328 328 329 329 329 330 330 330 330 329 330 327 327 327 327 327 327 325 326 326 326 325 324 323 323 322 322 322 322 320
298 302 303 301 301 299 298 293 292 291 288 284 290 294 286 287 293 294 297 295 295 297 299 301 303 304 305 306 307 308 309 310 311 311 311 312 312 313 313 314 314 314 316 316 316 317 317 319 320 318 318 319 321 322 325 328 328 326 326 325 325 325 325 325 325 325 326 327 327 327 329 329 329 329 329 329 329 329 329 327 327 326 326 326 324 326 326 325 325 324 324 323 323 322 323 322 321
303 301 298 297 296 293 294 292 291 288 282 286 292 294 291 283 289 291 292 293 297 299 301 303 304 305 306 307 307 308 309 310 311 311 312 312 313 314 314 314 314 315 316 317 317 316 316 317 318 319 319 319 320 320 322 325 328 327 325 325 325 324 324 324 323 323 324 325 325 326 326 328 329 329 329 329 329 329 329 327 326 327 327 325 324 325 325 326 326 325 325 324 323 323 323 323 321
299 293 293 293 290 292 288 284 287 281 282 289 292 292 293 282 286 292 296 299 301 301 300 302 302 304 305 305 307 308 309 310 311 311 311 312 312 312 313 313 313 314 314 315 316 317 317 317 317 317 318 319 319 320 320 322 325 327 326 325 324 325 324 324 323 322 322 323 324 325 326 326 327 328 329 329 329 329 328 328 326 326 326 326 326 326 326 326 326 326 325 324 324 323 323 322 322
296 294 292 286 282 283 279 284 279 279 281 288 292 292 288 287 291 294 297 298 301 302 303 302 302 301 302 304 306 307 308 308 309 310 310 310 311 311 311 312 312 312 313 313 314 315 316 317 317 317 317 318 319 319 319 319 320 322 325 324 323 323 323 323 322 322 323 322 323 323 324 325 326 326 327 328 329 329 328 328 327 326 326 326 326 326 326 326 326 325 325 324 324 323 323 323 322
292 290 288 284 279 278 276 280 281 283 286 290 290 294 287 292 295 299 298 300 302 302 302 302 301 301 302 303 304 305 306 308 308 309 310 310 310 311 311 312 312 313 313 314 314 314 314 317 316 317 318 318 317 317 318 318 318 319 320 322 323 322 321 321 322 322 322 323 323 322 323 324 325 326 327 328 329 329 329 328 328 327 327 327 326 326 326 325 325 325 324 324 323 324 324 323 323
292 295 292 286 284 280 276 278 276 277 280 284 290 285 280 284 288 297 298 301 302 303 303 303 303 303 303 303 304 305 305 306 308 308 309 310 310 310 312 312 312 312 313 314 313 314 313 314 314 315 315 315 315 316 316 317 317 318 318 319 321 321 321 321 321 322 322 322 323 322 323 323 324 324 326 327 328 329 329 329 328 328 327 327 326 325 325 325 325 324 324 324 324 324 324 323 323
293 295 295 287 285 289 280 283 281 281 280 281 283 283 286 287 295 296 296 297 298 300 300 301 301 303 303 303 303 304 305 305 304 306 308 309 310 310 311 311 312 312 313 312 313 314 314 314 313 313 314 314 314 314 315 316 316 317 317 317 318 319 319 320 320 320 320 321 322 323 323 323 324 324 325 325 327 328 329 329 328 328 328 327 326 325 325 325 324 324 323 323 323 324 323 323 323
289 291 284 289 296 292 284 285 286 285 282 279 285 286 289 293 295 296 296 295 295 296 297 299 300 301 302 302 303 303 305 304 304 305 305 308 309 310 311 310 310 311 311 313 313 313 313 314 314 313 313 312 313 313 314 314 315 314 314 315 316 317 318 318 319 319 320 320 320 321 322 323 323 324 325 325 326 327 328 328 328 328 328 327 327 325 325 324 324 324 323 323 322 323 322 322 323
292 284 289 297 294 289 286 279 281 281 277 279 286 282 284 285 281 295 295 295 296 297 297 298 299 299 300 302 302 303 304 304 305 306 306 307 308 309 310 311 310 311 311 311 312 312 313 313 313 312 311 311 312 312 312 313 313 313 313 314 315 316 316 317 318 319 319 319 319 320 321 321 322 324 324 326 325 325 327 323 327 327 327 327 326 326 324 324 324 324 323 323 323 323 322 323 323
292 288 296 289 280 282 283 282 275 276 275 277 282 283 284 286 286 290 289 293 294 296 297 297 297 298 299 300 302 302 303 304 305 305 306 306 306 308 308 308 309 310 311 311 312 312 313 314 313 312 312 311 311 311 311 312 312 314 315 314 314 314 315 316 317 317 318 318 319 319 320 321 322 322 322 323 323 323 325 326 327 327 326 326 326 325 324 324 323 323 323 323 323 323 322 322 323
294 296 290 295 289 286 284 283 283 282 276 278 277 281 279 288 288 291 291 293 293 294 295 294 295 298 300 300 301 302 302 304 305 306 307 307 307 307 308 308 309 310 310 311 311 311 311 310 310 309 309 309 309 310 309 309 310 311 313 312 312 313 314 315 315 316 316 317 319 319 320 319 320 321 321 322 322 322 323 325 325 326 325 325 325 325 324 324 323 323 322 322 322 322 322 322 323
286 287 284 288 284 291 288 285 282 280 277 277 276 276 280 289 292 292 293 294 295 295 295 296 297 297 298 300 302 302 303 304 305 306 307 307 307 308 309 308 308 309 309 309 309 308 308 308 308 307 308 308 308 309 308 309 309 309 309 310 311 311 312 314 313 314 315 316 317 317 319 319 319 320 320 320 321 321 322 324 325 324 324 324 324 324 324 324 323 322 322 322 321 322 322 322 322
287 288 286 287 284 282 279 277 288 283 281 277 278 275 282 290 295 294 293 294 295 296 297 297 297 297 298 300 301 302 302 302 302 303 303 304 303 304 305 305 306 307 307 307 307 307 306 306 307 307 307 308 308 308 308 308 308 310 309 310 310 310 311 311 311 312 312 313 314 316 317 317 317 318 318 320 320 322 323 324 324 324 324 324 324 324 324 323 322 322 321 322 321 321 321 322 322
Wind_Speed
11 11 10 10 7 4 4 3 3 2 3 7 6 5 2 2 3 4 5 3 3 3 4 2 3 1 6 3 2 8 11 6 3 1 1 2 4 8 9 8 14 13 12 11 9 9 9 11 13 13 13 12 12 11 11 11 9 9 8 10 8 7 6 8 7 9 7 6 6 6 7 7 6 8 8 6 10 10 9 8 9 8 7 8 9 9 8 10 10 10 10 10 10 10 9 8 8
9 11 11 9 5 2 2 5 2 3 3 5 7 7 3 4 1 3 5 2 3 4 3 3 1 3 4 5 4 4 11 8 5 5 4 5 5 5 3 7 14 14 11 10 10 9 9 9 12 12 13 13 12 11 11 10 10 10 10 9 8 8 7 7 7 6 5 7 4 6 4 7 6 8 8 7 10 9 8 8 8 7 7 7 8 7 10 10 9 9 10 9 9 9 9 8 8
10 9 8 6 5 3 3 2 3 3 3 6 2 5 4 4 3 2 7 8 6 4 2 4 3 2 2 2 4 1 3 10 10 7 5 6 9 4 5 6 11 13 12 10 10 10 8 9 12 13 14 13 13 12 11 11 10 11 9 8 8 8 8 7 7 6 6 6 6 6 5 4 5 7 10 8 9 8 7 7 6 8 7 5 6 9 10 8 8 8 9 8 8 8 8 8 7
8 7 6 4 3 1 2 2 4 5 5 5 2 2 2 4 8 10 7 6 5 3 2 3 2 2 2 3 3 4 6 5 7 9 5 7 5 8 5 10 10 10 10 9 10 9 8 11 13 13 13 13 13 12 11 11 11 10 9 8 9 9 9 9 8 8 8 7 9 8 6 5 7 8 6 7 8 7 8 5 7 6 6 3 3 10 8 8 7 7 8 8 7 7 7 7 7
8 7 6 3 2 2 2 3 4 3 7 4 2 2 3 7 11 8 6 5 3 2 2 2 1 0 2 2 1 1 1 6 7 7 6 4 10 8 6 12 10 9 9 10 11 10 9 16 14 13 14 14 13 12 11 10 10 10 9 9 9 10 10 9 10 9 7 7 8 9 8 7 5 4 9 7 7 7 7 7 6 6 6 6 5 5 5 7 6 7 7 7 6 7 7 6 7
8 6 6 2 2 2 2 3 3 6 7 2 5 3 3 6 10 8 5 4 3 1 3 2 1 4 2 1 3 3 1 1 6 6 7 7 13 10 6 11 9 9 8 9 9 9 10 16 14 13 14 14 14 13 12 11 11 10 9 10 10 10 9 7 7 7 7 7 9 9 9 8 7 5 7 8 7 7 7 6 6 6 4 5 5 5 4 6 6 6 5 5 6 6 5 5 5
4 6 2 2 4 2 2 5 7 6 2 5 4 3 6 7 9 7 5 5 2 1 1 2 2 1 2 3 6 4 5 5 5 6 6 10 11 9 11 8 9 9 8 8 7 9 13 14 14 14 13 13 14 13 12 11 10 11 9 11 11 8 7 5 6 9 6 8 8 9 9 8 7 6 6 6 8 5 6 7 7 6 5 5 4 4 4 4 4 5 5 5 5 4 5 4 4
3 0 3 2 3 2 4 5 8 7 2 5 2 4 4 9 6 4 5 3 4 2 2 3 2 3 5 7 4 3 6 7 9 11 12 10 9 8 10 10 9 9 8 7 8 9 14 14 14 13 13 14 14 13 12 11 10 10 11 10 9 8 7 7 7 5 9 8 9 9 9 9 8 7 4 6 7 7 4 6 7 6 4 4 5 5 5 3 4 3 4 4 4 4 3 3 3
3 2 3 4 4 3 4 6 7 9 4 3 5 4 4 3 3 6 5 1 7 3 5 3 3 2 2 3 6 4 3 7 10 12 11 11 9 8 6 11 8 8 8 6 8 10 10 12 13 13 12 13 13 13 12 11 10 9 10 10 9 9 7 8 8 5 6 6 11 10 10 7 8 6 5 6 5 8 7 6 6 4 6 5 4 4 3 1 2 3 3 2 4 2 2 1 1
4 2 2 3 2 6 4 6 7 5 3 5 5 5 3 3 2 3 7 4 3 1 4 3 2 3 1 6 6 4 4 8 11 10 9 9 10 7 4 10 10 9 8 8 9 9 8 11 12 12 12 12 12 11 11 10 10 11 10 10 9 7 6 6 7 7 4 8 7 9 7 8 8 8 8 7 6 7 9 8 6 7 4 7 5 4 3 4 4 4 2 3 2 2 1 1 1
4 2 3 3 4 5 5 5 7 1 3 4 4 5 3 1 3 2 2 4 6 2 5 4 1 3 5 7 4 3 8 10 10 11 9 9 8 7 5 5 11 10 8 10 10 9 8 8 13 11 11 12 12 11 10 10 10 10 10 8 8 8 6 7 7 7 6 9 7 5 7 8 7 8 9 8 6 4 8 6 5 5 6 6 5 5 5 5 2 3 3 2 2 3 2 2 2
3 3 2 4 5 4 6 5 6 5 2 3 4 5 1 3 2 2 2 3 4 3 6 5 1 0 3 4 2 5 8 9 9 10 10 8 6 6 6 3 11 8 8 9 10 10 9 7 7 10 10 12 11 11 10 10 10 9 9 9 9 8 8 7 8 7 7 6 9 7 7 8 8 8 8 6 5 4 5 7 6 6 6 6 5 5 4 6 5 5 4 4 4 3 4 4 4
4 3 4 5 5 5 6 8 6 9 1 4 6 3 3 4 3 3 3 1 5 2 5 7 3 0 2 2 3 8 9 8 10 11 10 7 5 4 3 3 10 9 9 6 9 10 10 8 7 8 7 11 11 11 10 10 10 9 8 8 8 8 8 6 7 7 7 7 3 4 6 6 6 4 10 8 7 5 3 4 7 7 7 8 7 7 6 7 6 5 6 3 5 5 5 6 6
5 2 3 5 3 6 5 6 5 8 2 6 5 5 4 3 3 1 3 3 4 3 3 7 0 1 0 6 4 6 6 9 12 11 8 8 6 3 3 1 6 10 7 8 7 10 9 9 9 8 7 8 7 9 9 9 10 10 10 9 8 7 7 5 4 5 4 5 3 5 4 5 4 6 7 9 8 7 5 5 4 7 8 9 9 9 8 7 7 6 6 6 6 6 7 7 7
1 3 3 3 4 4 4 5 2 8 0 1 2 3 4 2 2 3 2 3 6 5 2 4 1 0 1 1 6 6 8 11 11 10 8 6 5 4 4 3 3 7 7 6 6 10 8 9 9 8 7 7 8 6 6 8 12 10 9 8 9 8 7 6 5 5 5 4 4 5 5 5 7 7 8 7 7 8 7 7 6 5 6 6 4 6 9 9 8 9 8 7 7 8 8 8 8
3 3 2 3 5 6 4 4 5 8 3 5 3 3 3 4 1 2 2 4 2 2 2 2 1 1 6 10 7 10 11 11 10 9 9 8 5 4 2 4 3 5 7 5 4 5 9 9 8 8 8 8 7 7 7 6 9 12 10 10 9 10 8 6 6 6 6 5 5 5 6 4 5 6 8 7 8 8 8 6 7 6 6 6 5 3 1 2 6 8 9 9 10 9 9 9 8
3 2 4 4 7 5 4 6 4 3 1 1 2 1 4 3 3 1 0 1 1 3 2 3 2 1 6 6 11 11 10 10 9 9 9 7 5 4 2 2 3 3 4 5 3 4 4 10 9 8 9 9 9 9 7 8 9 11 10 11 11 10 8 7 6 6 5 5 5 5 5 4 4 4 6 5 9 6 9 8 6 6 6 5 5 5 3 2 2 1 6 10 9 9 4 5 5
3 4 5 6 5 7 3 7 3 4 8 3 3 4 5 3 3 3 1 1 2 4 3 3 2 2 9 8 10 11 10 11 10 10 8 7 5 5 4 2 2 4 5 4 4 4 4 4 9 10 8 10 8 8 6 7 7 10 8 7 7 8 9 8 6 5 5 4 7 5 4 4 5 4 6 8 8 8 9 11 9 8 7 6 5 5 5 4 3 3 3 6 7 5 6 4 5
5 3 5 7 5 6 3 1 4 2 5 4 3 0 3 1 7 3 3 3 4 3 3 4 4 6 7 8 10 11 11 10 11 10 11 10 7 9 7 6 5 4 5 4 4 5 5 4 4 7 9 10 9 7 6 7 9 8 8 8 7 7 7 7 6 6 5 5 5 5 5 5 5 5 5 7 8 11 10 11 10 8 7 6 6 7 6 7 7 7 5 4 5 3 4 5 5
7 5 6 7 8 2 2 7 5 7 13 6 4 4 1 1 2 4 2 3 8 6 5 5 6 7 9 8 10 10 10 11 10 10 11 10 8 9 9 8 8 7 7 6 6 6 6 5 5 5 5 7 8 7 6 6 7 8 7 7 7 6 5 6 6 6 6 6 6 6 6 6 6 7 8 7 9 6 7 11 11 10 9 7 6 4 6 7 8 8 8 8 5 4 5 5 6
2 8 7 6 7 4 8 7 4 8 3 2 2 4 3 1 2 3 1 2 4 6 6 9 10 9 13 12 10 10 10 11 9 9 10 9 9 7 8 9 8 8 7 8 7 8 7 7 6 5 4 5 5 5 5 6 8 7 7 7 7 7 6 6 6 6 6 7 7 6 7 7 6 6 4 5 6 6 6 6 6 6 5 6 7 5 6 6 6 6 5 6 5 6 6 6 6
6 10 9 10 9 9 2 2 8 6 6 3 1 5 5 2 2 2 3 4 2 1 5 9 10 11 15 13 12 10 10 11 11 10 10 11 11 9 8 7 8 7 7 8 9 8 9 8 7 6 5 4 5 4 5 5 6 7 7 8 7 7 7 7 7 7 6 7 6 6 7 8 6 6 5 5 6 6 7 7 7 7 6 6 6 6 6 6 6 6 7 7 7 6 6 7 7
6 11 11 10 9 10 4 3 4 4 3 3 3 2 2 2 3 4 4 7 1 3 10 6 7 5 11 13 12 10 10 11 11 11 11 10 10 9 8 7 8 8 7 7 9 7 9 9 8 8 7 6 6 4 5 6 6 4 5 7 7 6 7 7 7 7 7 7 7 7 6 6 6 6 6 6 6 6 7 6 7 7 7 7 7 7 7 7 6 7 7 7 7 7 8 7 7
10 10 10 11 9 13 6 5 3 0 4 4 2 4 3 1 6 3 6 5 7 5 4 4 5 5 12 10 10 11 11 11 12 11 11 11 12 11 9 8 7 7 7 7 7 8 9 11 9 8 9 8 6 6 5 5 5 5 5 3 6 6 6 6 6 6 6 7 7 7 7 6 6 7 6 6 6 5 6 6 6 7 8 8 8 8 8 7 8 7 7 7 8 8 8 8 7
12 13 9 10 10 11 8 2 4 1 3 4 5 4 4 4 5 4 4 4 2 2 4 4 4 2 4 9 9 8 9 9 9 9 7 6 8 9 8 6 6 8 9 9 6 7 9 10 10 10 8 9 8 8 7 5 5 5 5 4 4 5 5 5 6 6 6 6 6 8 6 6 6 5 5 5 5 5 6 6 7 7 6 7 6 7 8 8 8 8 8 7 7 7 7 7 6
12 13 8 8 11 11 1 7 5 2 3 3 3 5 5 5 7 7 6 6 4 5 4 5 4 5 4 5 8 7 8 9 8 9 10 8 6 8 9 8 7 8 10 9 8 7 8 9 11 11 10 10 9 9 8 7 6 7 7 7 6 7 6 6 5 6 6 7 6 7 8 7 7 6 5 5 6 5 5 6 6 5 6 6 6 6 6 6 7 6 6 5 5 5 5 6 6
5 9 10 13 13 12 5 5 4 4 5 4 6 6 6 5 4 5 4 7 7 6 5 7 6 5 5 4 6 7 7 8 10 7 7 6 6 8 8 8 7 7 8 9 9 8 7 10 10 11 10 9 8 9 9 9 8 8 9 8 7 7 6 6 6 6 6 7 7 6 7 8 7 6 6 6 7 7 7 7 7 7 7 7 6 7 6 6 4 5 5 5 5 5 6 6 5
11 9 8 8 9 11 10 10 6 2 5 4 6 8 6 7 6 8 5 4 3 8 9 5 6 6 5 6 6 5 6 6 7 7 9 9 8 8 8 9 9 7 7 9 8 7 7 10 11 11 11 10 10 10 9 9 10 9 8 8 8 7 6 6 6 6 6 6 7 6 6 7 7 6 6 6 6 7 7 7 7 7 7 7 6 5 6 6 6 5 4 4 4 4 6 4 4
6 5 7 7 10 11 9 8 4 4 6 3 3 7 9 7 12 7 6 6 10 7 4 5 7 7 6 6 6 5 5 5 6 8 8 8 7 7 8 8 9 9 6 7 8 9 10 9 10 11 11 10 11 11 10 9 8 8 7 7 8 8 7 7 8 8 7 6 6 7 6 7 7 8 7 7 5 6 6 7 6 7 6 7 7 7 6 5 5 5 5 4 5 5 5 4 3
5 7 6 8 7 11 9 7 8 8 6 5 2 6 7 10 11 8 8 8 7 9 7 5 4 4 7 6 5 6 5 5 6 7 7 6 8 8 9 8 9 8 7 6 7 10 9 7 7 8 10 10 11 9 8 7 7 6 7 6 7 8 8 8 8 8 8 8 7 7 8 8 8 8 8 7 7 5 5 6 6 6 7 6 7 7 7 6 6 6 6 6 6 6 6 5 5
7 5 5 7 6 12 8 9 8 13 7 9 5 10 8 8 7 11 13 11 12 11 11 8 6 6 4 6 6 6 7 6 6 6 7 7 7 7 9 8 9 8 6 6 10 10 9 9 8 7 10 10 11 10 9 8 6 6 6 6 7 7 8 8 8 8 8 8 8 9 10 9 9 9 9 8 8 7 6 6 6 7 7 6 7 6 6 6 6 6 5 6 5 6 6 6 7
3 3 10 7 9 11 6 9 12 13 5 10 8 11 11 7 7 6 5 14 13 12 11 10 9 7 6 4 6 6 6 7 7 7 8 8 7 6 8 8 9 9 9 9 8 8 10 9 10 9 10 12 12 12 10 9 9 8 7 6 6 7 7 8 8 9 8 7 7 8 10 10 9 9 9 9 9 8 7 6 7 6 6 6 6 6 5 6 5 5 6 5 6 7 6 7 7
7 10 9 9 9 9 7 11 9 12 9 10 15 7 2 9 10 8 10 7 9 12 9 10 11 10 9 6 5 6 7 6 8 8 8 9 7 6 7 8 8 10 9 8 9 9 9 9 10 10 11 13 12 13 12 10 10 10 9 8 8 6 8 8 7 7 7 8 8 7 9 10 10 10 10 9 9 9 8 7 6 6 6 6 6 6 6 6 6 5 6 7 7 7 7 7 7
10 8 10 7 11 6 9 3 11 7 11 9 13 12 12 4 3 6 10 14 12 6 7 6 7 6 7 5 5 4 6 7 7 9 9 9 8 8 6 7 8 8 9 9 9 11 11 10 9 10 8 10 10 11 12 11 10 10 9 8 8 9 7 8 7 6 7 7 8 8 8 10 10 11 10 10 9 9 8 8 7 7 7 7 6 6 6 6 7 8 8 8 8 8 7 7 7
11 9 8 10 9 11 9 4 5 16 15 15 10 13 13 9 10 12 9 4 5 8 7 5 5 5 5 5 5 5 5 5 7 6 8 9 9 9 7 6 7 7 7 9 9 9 9 8 9 10 9 9 9 9 10 9 9 8 7 8 8 9 8 6 7 8 8 8 9 9 8 9 10 11 11 11 10 9 9 9 8 8 7 7 8 8 7 8 8 9 10 8 8 9 8 7 6
7 9 11 9 8 8 11 10 11 3 8 10 11 11 9 11 12 10 12 11 9 8 6 5 5 5 5 6 6 6 6 7 4 4 6 7 9 10 8 8 7 7 7 8 9 8 10 9 8 8 9 9 8 8 7 8 8 8 9 7 7 9 9 8 8 9 8 10 10 9 9 9 9 11 12 11 11 10 10 10 9 8 8 8 9 10 10 9 11 11 11 10 9 8 8 7 7
10 9 9 8 8 9 9 8 8 4 5 10 10 12 13 15 11 7 11 13 14 13 10 9 9 9 8 6 6 7 7 7 5 5 5 4 4 4 8 7 7 7 6 7 8 9 10 11 10 11 11 10 9 9 9 9 10 8 7 9 11 10 10 10 9 9 9 9 10 11 11 10 10 11 12 12 12 11 10 9 10 9 8 9 10 11 11 10 10 9 9 8 10 9 8 8 8
15 12 9 10 9 6 7 9 6 2 7 5 6 10 14 13 8 8 10 9 11 12 13 12 10 11 10 9 9 8 7 4 4 4 4 3 2 4 5 6 6 8 8 8 9 11 11 10 11 11 9 11 11 12 11 10 10 11 11 12 11 9 9 10 11 10 11 10 10 10 10 10 10 10 11 12 11 12 11 10 10 11 10 9 10 9 9 9 10 10 9 9 9 11 9 7 7
15 11 9 10 11 7 10 11 10 5 1 4 5 9 9 9 9 9 9 11 10 9 9 9 11 11 10 10 10 9 6 6 5 5 5 5 5 5 5 6 6 9 10 11 11 9 9 10 10 10 11 12 12 12 11 11 10 10 10 8 9 8 8 9 8 9 8 9 9 10 10 10 10 10 11 12 12 12 12 11 11 10 11 10 9 10 10 11 11 12 12 11 8 8 9 6 9
12 10 10 12 7 6 7 10 12 8 3 2 3 9 9 9 12 14 12 11 10 9 12 12 9 10 8 9 10 9 8 8 9 8 8 7 7 8 7 8 10 9 8 8 9 11 10 10 11 12 12 13 12 13 13 13 13 12 10 8 7 8 7 7 9 8 8 9 11 11 10 10 11 11 12 12 12 12 13 13 11 10 11 11 11 10 11 12 11 11 12 12 9 8 9 10 9
13 13 12 11 10 9 10 8 7 7 11 6 5 10 12 9 13 13 9 10 13 16 15 14 12 10 10 8 7 8 10 9 9 8 8 8 8 10 11 10 10 10 10 10 10 11 10 13 13 13 12 12 11 12 14 12 9 8 8 7 5 6 5 7 7 8 10 10 9 9 13 12 12 12 12 13 13 14 14 13 12 12 11 11 11 11 12 13 12 11 11 11 13 12 10 7 8
11 13 15 14 11 11 11 11 10 8 10 7 2 8 15 9 13 16 13 11 16 14 15 15 14 14 13 14 14 11 10 8 8 8 8 9 10 9 9 10 10 11 12 12 12 12 10 10 11 12 11 11 11 12 13 11 10 11 10 10 10 9 9 8 11 13 12 12 14 14 12 12 13 12 11 12 13 12 13 14 13 12 12 11 11 12 11 9 12 13 13 12 12 13 10 7 8
10 8 13 13 11 9 8 9 5 7 12 3 11 13 16 7 9 11 11 14 18 13 14 14 13 14 14 14 13 13 13 12 11 11 11 10 9 8 9 9 9 10 11 10 10 11 12 11 11 12 12 11 12 12 12 11 11 10 13 14 14 14 13 12 12 10 10 11 9 9 11 11 13 13 12 12 12 13 12 12 13 13 12 11 11 10 12 13 12 12 11 12 13 10 10 11 11
11 4 6 7 12 13 12 10 9 6 3 5 5 4 11 12 7 8 9 11 12 12 13 14 13 12 13 14 13 12 13 13 12 12 13 13 13 12 13 13 11 12 10 9 8 9 12 14 12 11 9 10 10 10 11 12 12 12 12 12 12 12 13 13 12 11 10 8 10 11 10 10 12 13 13 13 13 13 13 13 13 13 13 12 11 12 13 12 10 10 12 12 10 10 13 13 12
3 4 7 8 9 11 11 10 9 9 8 9 7 2 7 9 7 9 8 14 15 16 12 9 9 10 12 12 13 14 14 14 13 11 11 12 13 14 14 14 14 14 11 10 9 8 8 9 10 9 10 9 9 9 10 11 12 13 12 11 11 10 11 10 8 8 9 9 10 9 10 11 11 13 13 14 14 14 13 13 14 13 13 13 12 12 11 11 14 12 12 12 13 12 11 12 9
9 4 1 0 1 3 5 7 7 7 8 12 11 10 12 16 11 9 8 14 16 14 12 11 12 12 10 10 10 12 12 11 12 13 13 13 13 13 11 11 10 10 9 8 7 6 7 7 8 9 10 9 9 9 10 11 13 12 11 11 12 11 9 9 8 9 9 9 11 11 11 10 11 11 13 14 14 14 14 14 13 15 15 13 11 13 12 12 12 13 14 13 13 13 11 11 13
2 5 2 0 1 1 2 2 1 5 15 13 14 15 14 16 14 11 12 10 10 9 9 11 11 10 11 11 10 9 10 11 11 12 13 12 9 9 9 9 9 8 8 9 9 8 6 6 6 7 8 8 9 10 11 12 12 12 12 12 13 13 13 12 11 11 10 9 10 11 11 11 11 12 11 13 15 14 14 14 14 14 14 13 12 12 13 13 13 13 12 12 13 14 12 12 11
6 0 2 2 4 1 2 1 2 8 13 13 17 15 17 17 14 7 11 8 8 9 10 9 8 10 10 7 7 8 7 9 11 11 11 9 7 8 7 9 9 9 7 7 7 7 7 6 6 7 6 6 7 8 9 10 10 12 12 13 14 14 14 12 13 14 12 13 12 11 10 10 10 10 11 11 12 14 14 14 15 15 14 13 14 13 13 13 12 11 10 11 12 13 12 11 12
8 6 3 6 3 4 6 4 8 10 11 6 11 13 11 21 19 6 3 5 9 10 9 9 8 7 6 6 8 8 7 7 9 10 9 7 8 9 9 9 8 7 8 7 7 6 6 6 6 7 7 6 8 7 7 8 8 9 11 12 12 12 12 13 12 12 11 11 11 11 10 11 10 10 11 12 13 16 14 14 14 15 14 15 16 15 14 13 11 11 11 12 12 13 13 14 12
7 8 8 8 7 7 8 7 4 7 8 7 3 9 13 6 13 15 19 19 11 13 12 9 6 5 6 6 5 5 5 7 7 8 9 9 8 8 8 7 7 7 7 8 7 6 5 5 6 6 9 7 6 6 8 8 9 10 10 11 11 10 11 11 11 11 11 10 9 10 11 10 10 11 11 12 12 13 13 14 15 16 16 15 15 15 14 13 12 12 11 12 13 12 11 14 14
11 4 9 8 8 5 8 6 11 9 8 5 11 5 4 7 7 4 14 15 15 18 19 17 17 19 14 7 5 5 6 5 7 7 8 9 9 8 8 7 6 6 6 7 6 6 6 6 6 6 6 6 6 7 6 8 9 9 9 10 10 9 10 10 10 10 10 11 10 11 11 10 10 11 11 11 11 13 14 14 14 14 14 14 13 13 12 12 12 11 11 12 11 11 13 13 13
4 5 4 7 13 4 12 6 6 5 7 6 5 6 3 6 3 7 4 9 9 13 15 13 16 16 16 14 12 9 7 7 5 5 6 7 9 9 7 6 5 5 6 5 5 5 5 6 5 6 6 6 6 6 7 8 8 7 7 7 9 9 9 8 9 8 9 10 11 11 12 11 10 10 9 9 11 12 13 13 14 15 14 13 13 13 13 12 12 13 11 11 12 9 12 15 13
4 4 8 9 7 13 7 7 10 7 9 11 2 7 6 5 13 11 5 6 5 4 9 11 13 14 14 14 14 12 9 8 7 6 6 7 7 7 8 6 5 4 5 5 6 5 5 5 5 5 5 5 6 6 6 6 6 6 7 7 7 7 9 9 10 10 10 9 9 10 10 10 10 9 9 9 10 10 11 12 13 13 13 13 13 13 13 12 12 12 12 12 12 10 11 13 12
1 7 7 5 5 4 5 10 3 9 13 11 8 15 9 7 9 9 15 15 16 14 11 9 7 7 11 12 11 10 9 9 9 8 8 7 6 7 6 4 5 5 5 5 5 4 4 4 5 5 5 5 6 5 5 5 6 6 7 7 7 8 8 9 9 10 9 9 9 8 8 9 10 10 9 8 8 9 10 12 12 13 13 13 13 13 13 13 12 11 12 12 12 11 11 10 11
8 3 4 10 3 9 2 1 11 8 11 8 10 13 12 9 11 4 4 9 11 11 12 13 9 6 6 6 7 8 7 7 6 7 7 6 5 4 4 5 2 2 2 2 2 1 1 1 2 4 6 7 6 5 4 4 5 5 5 7 7 7 7 7 7 8 7 8 10 9 10 10 9 9 9 9 7 8 9 10 11 12 12 13 12 12 12 12 12 11 11 12 12 12 11 11 11
2 4 2 4 1 6 8 5 3 6 12 6 13 8 11 7 9 9 13 12 10 10 9 5 5 7 8 7 6 6 6 7 9 9 7 4 3 4 3 3 4 5 5 3 1 0 1 3 4 5 5 5 5 6 5 6 6 5 6 5 6 6 7 7 8 8 8 9 10 9 10 9 11 8 8 8 8 9 8 9 9 10 10 10 11 11 12 12 12 13 12 12 11 12 13 13 12
3 4 3 3 1 1 3 2 4 5 6 10 10 11 4 5 7 10 12 12 11 10 11 10 7 5 6 5 6 4 2 4 5 6 7 9 8 7 6 5 3 2 1 1 1 3 4 4 4 5 5 6 6 7 5 6 5 5 5 7 8 6 7 7 7 8 9 9 9 9 9 9 7 9 7 8 9 10 10 9 9 10 11 11 12 12 12 12 13 13 12 12 11 12 14 13 12
3 9 12 10 6 6 9 12 4 5 5 5 6 14 4 3 0 2 3 3 2 1 1 3 3 5 6 9 11 10 7 6 6 6 6 6 6 6 6 5 3 1 1 2 4 4 5 5 5 5 5 6 7 7 6 6 5 5 6 7 7 6 7 6 7 7 9 9 9 9 9 7 8 9 7 10 10 9 9 10 10 11 11 12 12 13 13 12 13 13 13 11 12 13 14 14 13
Wind_Direction
311 310 312 299 281 248 286 228 260 187 217 241 252 248 93 44 92 125 101 123 180 63 93 108 69 133 23 34 36 62 34 49 21 88 146 138 184 170 194 139 122 120 132 134 139 146 149 149 148 150 150 149 146 149 152 152 144 135 142 145 151 149 144 131 128 127 139 123 117 132 143 129 126 109 95 109 113 112 104 107 112 103 110 115 106 109 107 87 83 80 76 69 67 69 73 80 80
307 308 302 295 264 345 232 171 247 279 235 267 243 116 118 108 188 136 141 141 53 102 100 76 122 51 32 359 358 105 54 55 74 84 79 134 177 175 130 124 128 132 134 132 141 149 150 150 148 150 152 149 146 145 147 150 150 142 144 145 138 128 124 128 134 150 129 129 134 134 145 144 155 134 120 134 123 113 106 115 113 117 109 116 124 114 92 91 82 75 78 80 77 70 73 81 82
303 302 302 302 277 193 294 284 260 256 266 251 9 76 140 112 132 81 77 85 90 91 85 72 66 114 154 267 256 32 107 100 93 98 109 152 152 172 162 145 134 133 134 134 147 152 150 153 148 152 152 150 146 145 146 150 157 159 150 146 145 137 135 138 142 151 144 152 156 140 147 157 126 127 139 128 116 111 113 122 119 107 112 117 123 116 108 104 86 91 93 88 79 73 70 74 82
282 263 273 302 308 209 274 233 246 272 274 272 94 118 136 134 90 85 84 83 83 110 125 143 178 19 277 202 37 105 106 86 107 123 134 167 160 143 181 132 135 134 131 142 156 151 152 152 152 153 152 150 147 147 147 149 151 158 158 155 151 150 147 148 157 163 159 151 150 143 144 141 149 137 114 119 120 130 123 127 109 116 113 109 92 122 110 95 100 101 85 79 77 74 75 70 77
294 289 260 267 309 258 238 245 249 218 261 316 131 168 84 78 95 92 88 89 98 123 197 120 112 85 37 17 272 76 111 99 99 120 130 186 123 140 185 124 142 136 139 148 155 154 145 151 155 153 152 152 150 149 151 153 153 152 157 156 156 151 155 165 168 166 144 152 154 153 150 147 164 149 135 134 133 133 128 118 120 111 128 129 141 131 112 113 105 99 89 82 81 79 70 71 64
300 306 291 178 221 5 299 290 255 246 250 252 44 33 68 78 104 104 102 91 72 66 342 147 3 158 200 64 15 79 207 148 148 110 145 110 131 153 164 132 140 138 146 148 155 149 144 154 154 152 154 153 151 152 154 156 156 152 154 164 160 162 165 164 154 136 154 161 159 160 158 154 159 157 134 140 127 123 146 135 136 119 133 150 144 106 120 127 126 109 112 105 89 82 74 71 66
319 328 271 165 274 230 252 253 268 272 322 337 114 72 58 85 97 112 113 98 95 53 42 291 93 215 168 98 82 60 22 111 126 129 111 129 133 163 126 145 134 146 150 152 148 128 145 152 152 152 153 154 155 154 158 159 157 148 153 161 169 164 161 163 168 152 163 149 160 158 159 160 150 154 153 153 135 139 142 143 134 167 151 126 110 142 158 134 136 125 120 110 97 91 87 72 67
232 18 311 292 278 173 225 249 268 274 322 49 34 85 84 96 124 129 133 175 156 186 186 344 342 320 70 174 112 52 57 46 88 103 120 126 147 139 150 141 147 151 146 146 133 128 145 151 153 153 154 156 157 157 159 161 160 155 155 164 165 154 185 165 189 180 154 161 155 157 162 162 149 157 159 148 148 152 172 152 155 151 135 147 168 173 152 174 137 142 127 137 119 105 96 80 70
268 215 234 282 263 265 260 245 251 259 159 146 87 71 52 78 114 150 147 112 118 224 151 159 240 234 155 155 82 128 79 98 100 115 124 135 141 149 168 139 149 141 139 138 113 129 144 153 154 155 154 156 159 158 160 163 162 160 161 163 175 176 169 165 189 222 156 184 155 163 172 151 157 162 156 141 172 168 161 160 154 155 163 166 183 138 144 161 158 160 151 149 118 132 107 103 68
287 191 269 245 290 262 248 235 246 249 220 100 112 126 132 117 128 249 156 143 151 136 152 132 155 258 50 119 121 138 118 116 123 118 125 138 137 156 178 146 147 147 142 127 122 135 147 155 154 156 155 154 157 157 160 163 166 166 167 169 185 178 174 183 171 196 227 170 186 173 182 158 166 169 160 158 180 176 160 183 166 172 193 176 178 149 164 198 191 189 186 169 177 135 145 165 222
294 238 237 296 259 258 262 267 228 223 157 117 114 103 99 124 149 193 230 132 111 172 88 81 266 261 288 80 68 78 125 129 131 129 136 136 145 161 169 167 138 146 148 126 133 138 142 158 158 155 158 155 157 159 160 163 170 173 173 172 172 175 176 194 178 198 218 173 185 186 171 158 173 173 174 172 180 175 175 167 172 191 190 181 180 187 194 207 203 218 201 206 206 207 194 234 227
284 264 236 235 244 253 244 256 329 314 101 113 118 118 114 150 176 174 179 168 129 170 148 171 50 240 235 135 108 134 135 142 129 132 136 136 150 177 157 181 134 142 136 127 136 135 148 154 159 161 157 156 158 162 163 167 171 176 177 177 172 174 194 190 191 190 203 204 179 185 174 175 176 191 171 167 160 176 188 181 189 191 184 190 204 194 199 216 202 224 212 195 215 209 225 234 250
265 297 277 258 254 259 296 294 286 297 50 211 126 104 150 139 197 204 152 256 141 171 169 180 121 199 233 96 145 135 148 141 129 130 133 150 157 185 163 160 137 140 133 138 135 141 151 155 160 163 161 157 163 166 170 174 174 177 178 179 180 179 186 214 190 191 195 210 181 133 168 181 180 193 164 175 170 149 201 172 188 189 203 201 199 205 207 218 225 224 224 208 215 215 220 232 232
249 256 284 260 278 267 273 285 300 283 342 27 102 143 152 157 216 187 121 207 147 184 38 137 353 99 138 108 144 149 140 136 129 127 139 156 149 165 157 185 135 129 140 145 146 148 156 158 167 163 162 161 170 172 175 178 180 180 183 181 182 180 179 196 194 200 206 210 128 128 115 128 187 192 167 174 167 170 153 131 157 189 202 206 207 208 204 211 211 227 230 230 242 223 225 236 237
293 293 266 266 262 271 256 266 302 297 127 57 55 142 134 62 28 47 290 217 67 81 79 68 85 103 334 158 156 157 141 132 132 135 142 135 140 141 189 118 119 120 140 159 161 152 160 161 167 164 171 171 171 178 180 182 182 184 185 189 180 175 174 188 193 198 205 209 174 147 135 133 135 147 146 165 168 166 156 146 154 163 187 201 212 243 223 213 212 216 216 226 230 229 224 229 236
218 269 255 250 242 240 226 241 250 257 235 319 316 45 173 106 72 178 56 28 110 60 130 156 98 336 87 87 91 121 126 134 134 135 130 129 150 146 141 115 164 124 136 165 177 167 158 169 169 165 171 181 174 179 183 181 186 183 185 185 184 176 170 186 192 200 201 202 176 166 157 142 149 150 160 165 172 170 164 175 176 173 186 194 169 133 67 247 229 226 215 220 228 235 230 234 237
213 226 258 230 253 223 217 229 233 215 27 228 225 200 238 161 152 56 261 358 187 158 222 114 163 199 101 102 121 122 129 129 130 134 131 142 136 139 94 111 176 155 131 166 189 186 172 169 172 167 173 183 181 183 184 182 186 186 186 187 184 181 169 193 191 198 209 204 175 174 162 183 192 171 168 173 182 180 179 181 171 189 192 196 189 180 197 198 119 311 253 234 233 238 229 198 187
229 221 234 244 238 238 219 250 178 234 233 161 210 196 254 181 165 131 56 206 274 126 212 128 69 84 111 126 127 129 130 138 142 148 148 146 153 148 160 183 199 188 145 157 204 190 209 192 172 167 175 182 187 180 183 179 180 187 187 189 187 189 174 192 184 192 194 202 199 183 183 195 212 209 184 196 184 192 185 186 186 184 186 195 187 198 192 190 205 221 256 266 246 139 162 168 197
226 241 233 247 219 228 245 316 329 278 295 198 112 293 265 265 163 137 173 199 205 190 201 160 163 117 113 129 126 139 146 148 155 162 159 162 167 169 170 173 198 182 165 168 203 210 197 206 196 175 169 181 188 182 180 178 170 182 190 188 192 204 184 190 191 193 188 206 201 202 197 204 208 221 218 191 195 189 184 190 189 189 195 192 195 195 200 199 212 228 228 172 161 181 173 204 204
234 252 242 238 256 59 311 245 228 212 229 235 157 193 263 22 15 110 229 230 177 213 191 188 187 169 146 146 149 149 160 157 167 169 169 168 179 173 174 177 185 192 176 181 189 211 198 195 201 197 180 174 177 180 171 156 156 174 185 187 193 197 191 189 195 193 200 203 210 202 205 210 212 208 223 198 179 154 174 182 186 188 198 206 212 210 213 212 208 211 195 191 188 197 211 211 224
248 232 239 256 259 205 205 244 214 250 209 299 6 46 319 224 230 158 176 242 235 202 217 190 193 184 160 159 160 161 161 163 178 175 175 175 183 182 181 182 183 183 180 171 189 195 197 192 188 200 188 171 170 172 164 170 153 171 184 192 191 186 188 188 196 204 197 207 212 196 201 212 208 210 205 166 158 167 157 177 189 190 193 202 192 205 205 210 211 210 208 204 212 209 217 223 227
290 251 246 246 266 270 256 356 34 2 39 315 259 99 249 305 136 229 243 241 250 293 221 189 189 192 161 161 162 165 166 167 179 179 184 182 186 189 184 176 175 178 171 175 188 187 189 194 182 183 194 177 172 174 171 183 175 173 184 191 186 178 189 186 191 198 202 203 209 213 199 206 200 198 211 181 186 186 185 175 187 193 199 206 187 209 209 209 207 210 204 205 215 218 217 225 224
264 273 267 266 269 273 250 91 358 334 315 268 269 348 354 87 276 202 227 240 207 80 37 37 45 39 141 151 153 169 169 175 182 187 186 188 189 195 189 177 174 174 175 185 179 187 180 190 186 175 186 181 176 182 181 183 190 194 189 183 185 186 178 189 190 188 195 200 201 205 212 207 207 203 203 205 200 189 188 198 189 192 202 203 192 203 210 211 213 204 207 205 207 211 223 226 221
204 241 263 264 263 263 263 101 168 292 290 266 332 17 280 281 249 220 216 223 252 93 95 63 41 71 119 139 162 175 176 179 189 190 190 192 189 192 192 183 177 163 166 190 179 180 178 185 187 177 181 179 175 181 196 191 182 193 215 210 188 188 181 186 190 189 193 203 195 196 201 209 206 208 209 201 206 192 194 196 204 194 192 201 194 194 202 206 207 207 206 208 203 207 212 219 222
230 246 249 271 269 259 243 203 144 177 260 294 322 290 259 246 261 329 286 271 246 284 106 118 122 95 154 150 169 182 182 183 187 191 195 202 198 191 193 191 182 163 172 184 184 177 175 178 183 185 180 182 176 181 199 199 183 184 203 218 217 198 197 191 190 191 198 209 189 190 189 210 225 217 212 210 198 202 198 199 203 208 205 204 195 197 192 198 204 207 209 209 207 207 206 211 212
236 249 250 257 260 272 220 274 273 216 249 234 256 258 260 261 291 275 262 255 276 272 165 147 145 146 205 168 175 186 187 188 187 187 193 194 195 192 193 194 192 178 176 176 179 183 170 174 182 185 182 183 180 181 195 199 192 188 197 209 214 201 202 197 193 197 197 204 201 191 191 193 208 217 219 214 209 219 206 202 204 214 215 207 197 211 212 195 200 204 209 214 216 216 214 217 212
234 230 250 257 259 271 233 246 260 251 246 227 238 246 250 247 230 249 206 232 236 250 244 163 162 183 188 201 182 189 191 191 188 186 181 184 197 198 196 193 197 195 171 177 178 182 172 171 183 183 183 181 181 186 187 197 198 199 192 197 201 200 194 192 203 211 206 196 204 197 190 189 194 212 222 214 206 205 205 200 202 204 215 214 200 203 205 208 208 209 205 212 226 230 227 216 214
259 244 250 283 295 263 260 235 190 260 259 229 266 266 259 262 247 243 251 266 243 219 218 211 174 190 200 203 207 194 195 193 182 180 187 183 195 196 195 192 197 195 187 184 176 172 178 176 179 184 186 183 181 186 185 194 201 205 193 186 193 196 187 192 203 214 219 206 197 196 185 186 192 208 221 233 215 200 204 202 198 196 205 207 207 203 200 196 199 213 215 212 215 218 230 233 228
282 330 291 275 269 276 254 254 246 205 253 237 246 268 253 231 234 237 242 257 278 299 280 216 200 190 200 206 201 202 198 195 177 184 195 192 189 192 202 195 189 195 202 185 176 170 183 185 178 184 188 184 185 187 188 193 196 200 203 191 188 191 196 193 199 208 215 215 201 195 192 194 195 204 219 234 241 217 204 204 203 200 198 199 202 207 203 193 193 207 232 230 229 226 233 253 273
250 254 269 274 270 261 244 242 240 234 232 217 185 267 234 237 238 226 228 223 236 251 251 266 269 217 191 200 197 194 194 197 194 191 190 190 185 189 199 194 190 192 190 188 178 179 180 185 182 181 187 183 188 189 188 193 198 199 201 202 189 189 197 197 201 203 208 213 206 199 198 198 198 196 203 227 240 240 221 208 204 206 202 199 198 196 198 192 192 195 210 223 233 220 222 231 245
236 241 244 240 245 245 221 232 225 233 192 200 201 254 245 251 235 210 209 218 213 223 226 228 231 247 218 188 196 188 193 192 203 191 185 192 193 189 192 190 187 183 177 185 192 186 177 181 182 186 182 184 180 190 193 196 199 207 207 205 203 194 196 200 202 205 208 208 202 202 199 202 199 197 194 203 228 233 231 219 213 210 201 197 200 197 184 191 189 200 199 220 233 226 216 211 215
220 230 226 229 234 251 234 224 221 230 192 200 201 247 244 245 260 284 227 208 214 218 223 219 217 226 231 207 194 194 194 191 201 198 185 195 196 195 188 192 182 181 182 187 189 182 187 185 183 189 180 187 181 187 190 190 194 203 213 214 207 205 203 201 201 204 206 205 206 200 199 199 200 198 195 197 212 223 228 226 219 209 203 195 195 196 188 193 194 199 205 205 226 233 216 221 213
205 214 238 235 222 246 246 228 245 216 227 204 201 242 163 232 233 258 278 281 215 222 223 221 215 219 226 223 209 195 197 200 191 197 191 189 201 202 190 186 184 184 182 176 179 186 191 189 184 191 187 189 187 185 188 190 191 198 205 208 211 207 207 210 206 197 198 203 209 206 195 197 201 201 200 197 203 213 224 231 224 209 203 202 198 197 197 196 192 203 216 217 222 227 223 228 221
216 203 236 229 239 233 237 206 213 237 211 226 203 227 239 286 283 232 223 242 258 247 221 233 223 213 223 226 230 222 199 194 197 190 194 186 195 204 199 183 185 182 179 180 175 181 190 188 189 193 192 191 192 187 189 190 194 196 200 205 208 217 214 204 202 199 207 205 208 212 196 197 201 201 200 200 202 206 213 223 226 214 202 203 205 204 207 193 200 203 218 218 219 223 227 225 228
205 203 229 231 237 246 273 239 191 214 216 221 213 224 242 245 248 267 278 273 254 241 232 224 241 235 239 239 239 246 248 215 201 196 191 187 186 196 198 185 184 183 179 179 176 176 183 191 187 191 191 189 195 193 190 191 192 197 201 202 207 215 223 213 198 204 207 208 212 211 205 196 196 197 198 198 203 204 209 216 220 217 203 201 205 211 213 205 202 206 214 218 218 220 221 224 228
245 228 226 230 229 229 234 249 277 278 232 209 219 239 241 233 232 229 252 262 256 257 235 231 248 250 239 233 233 232 235 245 222 206 208 194 188 189 187 184 182 178 176 177 179 178 182 189 188 185 193 190 189 193 185 191 191 196 200 202 213 215 214 215 210 207 201 208 209 205 208 206 193 194 195 198 203 203 207 212 216 214 210 201 203 208 211 208 205 206 213 215 219 223 220 223 225
264 282 294 282 273 252 244 238 252 193 237 239 236 241 241 245 249 243 225 231 246 252 244 226 230 240 246 246 237 232 229 232 223 215 227 222 198 162 179 172 164 174 183 182 185 190 188 188 183 189 191 189 185 190 192 189 194 198 204 207 213 209 209 209 214 214 212 210 204 205 207 206 198 191 193 195 201 202 207 209 211 218 215 208 206 211 209 210 208 209 212 209 215 220 224 215 221
228 240 254 269 273 275 302 307 275 175 189 249 243 251 249 260 258 255 276 266 241 233 243 242 231 223 227 236 248 240 235 238 224 217 231 235 223 138 145 154 162 172 195 193 196 196 196 194 189 194 182 190 195 195 195 195 196 197 196 205 206 206 205 205 213 212 215 215 211 209 209 206 201 195 193 194 197 200 205 207 209 211 212 215 214 210 208 209 207 209 207 216 210 216 225 202 207
224 231 234 248 249 278 287 289 296 316 56 277 317 293 285 273 262 259 256 261 263 264 252 239 241 240 223 223 233 240 233 236 233 225 221 218 212 190 175 186 193 191 190 194 201 199 198 196 200 193 190 190 198 197 194 200 200 201 200 206 200 211 212 211 214 215 214 217 217 215 212 211 205 202 193 194 195 201 204 206 211 207 209 210 211 209 207 208 207 207 204 209 205 215 223 207 198
230 223 230 234 241 233 260 252 274 275 197 297 261 277 267 257 258 254 248 259 269 258 255 254 241 246 237 221 219 228 231 226 224 218 223 216 212 209 204 204 207 211 208 206 203 200 200 199 202 199 200 196 196 198 198 202 198 199 201 201 197 200 201 202 207 209 212 213 219 215 218 212 207 207 198 195 199 200 201 205 206 207 208 205 208 208 206 210 206 208 207 207 196 207 210 218 204
229 227 225 233 229 221 225 257 265 292 276 275 295 287 272 247 263 264 256 250 249 250 249 248 248 246 246 247 239 221 229 226 224 223 222 221 215 215 214 211 206 204 206 209 208 204 204 202 202 201 202 202 201 200 201 198 190 193 196 199 195 200 208 194 197 213 211 212 217 214 219 212 211 209 207 203 200 201 201 202 203 207 206 206 205 209 209 210 207 209 207 206 204 208 210 208 205
227 227 223 228 228 233 226 234 249 250 260 203 210 273 257 246 239 250 249 244 245 239 239 237 235 238 238 238 238 236 237 236 237 231 226 223 223 223 220 215 210 208 210 211 210 210 207 209 207 204 204 203 204 203 200 194 193 192 185 186 198 201 205 198 201 207 203 204 210 213 213 209 212 212 208 211 208 206 204 203 203 203 207 208 206 208 209 206 209 208 207 208 213 212 209 192 211
229 219 214 231 239 243 242 246 218 241 240 212 186 228 270 235 231 227 232 233 242 238 234 238 233 232 232 234 231 231 232 238 241 242 241 241 238 232 232 225 220 215 218 214 212 208 211 213 212 207 205 206 205 204 195 190 197 200 198 198 198 199 204 212 213 212 206 212 213 211 212 210 211 211 211 209 210 208 209 207 206 207 208 209 208 206 207 208 207 208 203 207 212 207 201 219 215
238 225 218 214 227 234 237 235 226 245 286 293 50 228 266 277 237 248 250 255 245 238 228 233 234 232 228 229 225 222 224 227 231 233 235 237 239 238 240 241 239 237 231 224 217 206 209 214 216 213 209 210 209 205 197 191 196 201 205 207 207 208 209 215 210 214 211 204 207 210 208 210 210 211 213 212 211 208 207 209 208 209 210 210 206 210 211 206 203 206 205 209 208 205 206 215 220
233 91 123 198 230 236 239 236 233 230 250 246 231 134 284 247 234 235 238 257 257 260 258 250 239 233 229 226 219 218 218 217 221 228 231 232 233 234 235 238 241 244 242 235 229 221 215 217 220 218 215 212 212 203 201 196 200 202 206 207 213 219 220 225 219 212 211 208 214 207 207 208 209 210 211 212 212 210 206 208 207 210 213 214 209 213 213 203 201 200 200 204 207 208 208 213 215
217 136 136 9 127 163 229 225 231 243 226 236 218 178 245 264 242 245 218 233 251 256 257 256 251 248 244 236 226 222 217 213 215 227 231 228 230 233 234 235 239 237 238 239 237 226 223 216 217 215 218 213 208 205 202 200 202 203 206 208 213 219 221 230 222 217 212 206 217 213 211 208 207 207 209 211 211 211 211 208 208 210 213 214 214 216 213 208 203 202 203 205 206 208 207 207 212
101 68 99 28 28 51 37 58 175 237 239 233 225 205 215 264 243 221 235 230 235 254 257 250 250 248 241 237 226 223 218 206 208 221 231 233 230 232 233 234 235 235 228 228 234 229 225 224 221 223 222 213 210 211 203 204 201 203 208 208 212 218 219 220 223 227 221 216 217 216 214 212 207 207 203 207 208 207 211 209 210 212 212 212 213 216 215 211 209 205 203 201 205 207 207 209 212
95 26 119 35 299 19 346 335 106 238 245 226 223 218 209 243 257 219 243 254 226 221 235 239 236 232 235 232 229 222 205 204 207 214 229 234 242 241 233 236 238 239 241 236 235 228 225 226 226 235 240 227 222 219 215 211 202 206 209 209 214 218 219 221 222 226 221 223 222 221 216 216 214 211 205 204 206 206 207 208 209 212 211 210 212 213 215 213 210 206 201 202 205 208 209 208 212
145 144 153 191 227 145 241 163 224 218 238 221 217 206 231 233 252 243 275 227 231 229 247 256 258 253 240 226 224 222 215 208 207 213 219 220 225 232 232 236 238 244 246 245 239 232 226 225 224 228 240 233 229 225 223 221 214 213 213 218 223 225 228 229 231 234 228 228 227 228 221 221 216 215 211 208 208 204 205 206 206 209 210 211 211 209 212 210 208 206 205 205 205 204 206 207 210
180 181 175 188 209 214 238 217 240 256 241 235 210 172 234 263 268 238 242 249 267 279 270 262 261 263 253 243 236 237 225 215 209 207 207 215 222 230 229 227 226 231 235 236 238 235 228 222 221 218 234 232 233 233 231 229 224 223 221 223 226 227 233 235 236 237 236 234 232 232 229 228 222 220 215 216 209 207 208 209 209 212 212 212 210 209 208 207 205 206 206 206 206 209 206 208 213
212 178 193 205 212 213 232 217 233 228 247 221 195 195 234 157 231 197 218 233 216 233 240 244 250 259 259 253 249 243 249 232 215 207 210 216 224 228 229 228 226 227 232 233 232 231 227 231 227 223 236 241 234 231 229 230 229 227 227 226 228 227 232 234 238 236 236 236 235 235 234 230 228 225 219 218 208 207 209 210 212 214 213 213 210 209 208 205 204 206 209 209 208 205 209 208 213
235 212 186 223 225 235 247 226 243 239 264 257 188 208 200 200 262 238 191 226 215 217 235 231 232 233 243 247 248 244 235 234 222 219 231 234 226 234 238 233 227 227 235 238 232 221 216 226 224 226 226 238 238 237 232 229 233 232 231 230 230 230 231 235 242 239 239 236 238 235 237 234 234 233 230 220 214 208 207 209 211 214 212 211 210 209 207 205 203 205 208 209 210 202 208 210 213
181 130 220 217 230 234 274 283 264 316 290 248 253 263 266 292 273 265 278 283 272 239 236 226 226 225 226 234 239 236 228 228 241 245 233 230 234 239 241 233 230 235 239 231 231 223 217 224 231 243 246 247 248 242 236 234 238 240 241 234 233 233 233 234 237 242 242 242 241 242 242 241 240 236 235 225 222 214 211 208 210 213 211 209 208 207 206 206 203 205 207 207 212 207 210 213 212
114 215 217 214 49 67 198 243 238 229 242 254 216 242 247 244 278 173 230 246 250 241 247 250 232 218 219 225 232 229 222 221 221 224 228 226 223 229 237 233 219 231 241 251 251 238 222 221 223 236 251 254 257 253 248 239 237 239 243 243 241 235 236 239 240 243 244 245 245 244 244 244 239 237 235 232 223 218 215 210 211 211 209 207 206 203 203 204 202 206 207 209 212 209 214 216 215
243 208 327 212 242 253 171 296 237 234 240 258 232 247 247 230 249 296 242 232 245 248 244 252 252 242 239 238 233 229 225 228 223 225 231 239 242 247 245 254 277 258 250 256 286 315 303 255 234 227 244 249 255 258 254 255 236 234 234 239 240 243 242 244 245 246 245 245 246 243 243 242 245 240 237 236 229 225 217 214 212 211 206 206 202 201 197 200 201 207 208 211 210 209 214 216 216
109 58 288 320 311 231 214 210 283 248 259 255 255 225 244 201 245 245 257 270 285 296 299 284 254 239 231 227 220 222 225 216 214 214 217 220 242 271 307 348 28 46 54 50 36 8 288 259 266 274 281 288 287 279 271 265 255 246 253 250 248 240 240 239 240 242 245 244 245 243 244 246 243 240 238 236 234 232 224 218 212 209 205 200 199 198 195 198 200 207 206 210 209 207 213 217 218
232 239 240 260 209 304 18 316 211 228 247 236 263 254 220 196 194 226 245 253 260 265 263 272 289 301 311 250 224 219 25 19 22 29 34 38 36 34 39 40 39 25 43 324 274 262 259 269 274 268 266 276 275 271 264 258 257 254 249 250 249 244 244 239 243 240 243 245 245 242 243 243 244 241 238 238 238 234 227 217 208 203 200 198 199 200 198 200 203 206 207 208 206 207 213 218 217
236 206 232 220 223 246 242 260 192 216 210 225 249 249 253 285 336 241 263 253 266 273 38 1 4 3 21 23 26 41 49 50 55 53 45 35 27 15 10 2 1 350 282 273 263 257 266 262 251 257 259 258 263 269 261 259 253 246 243 246 249 246 243 241 242 245 244 248 247 248 246 249 246 249 239 242 238 231 221 213 208 207 205 203 204 204 202 201 204 205 207 205 206 208 214 217 215